Location: Oberwangen
(47.4286°N, 8.9679°E)
Time: 22:57:33
(UTC+00:00)

USA 267 - Pass Details

Date: 20 June 2021
Orbit: 1102 x 1106 km, 123.0° (Epoch: 21 July)

Event Time Altitude Azimuth Distance (km) Brightness Sun altitude
Exits shadow 22:46:54 - 117° (ESE) 3,103 5.3 -18.6°
Reaches altitude 10° 22:47:17 10° 116° (ESE) 2,956 5.2 -18.6°
Maximum altitude 22:53:49 78° 32° (NNE) 1,129 3.4 -18.8°
Drops below altitude 10° 23:00:22 10° 307° (NW) 2,968 6.1 -18.9°
Sets 23:02:51 0° 306° (NW) 3,929 6.8 -18.9°
